When you browse on this site, cookies collect data to enhance your experience and personalize the content and advertising you see.
Visit our Privacy Policy to learn more. By continuing to use the site, you agree to this use of cookies and data.
  • In Hungary
  • List of Countries
  • For 7 days
  • Water Temperature
  • Weather Map
  • News
  • Weather Widgets
  • user-avatar
    Login

    Hourly Weather Macon

    Today, 15 November, Friday

    Time Temperature Precipitation Wind Pressure Humidity
    00:00 +5°C° 1.8 mm 3 mps 757 mmHg 95%
    01:00 +5°C° 2.2 mm 3 mps 757 mmHg 95%
    02:00 +7°C° 2.2 mm 3 mps 756 mmHg 95%
    03:00 +6°C° 2.2 mm 4 mps 756 mmHg 96%
    04:00 +6°C° 2.4 mm 4 mps 756 mmHg 96%
    05:00 +8°C° 2.4 mm 3 mps 755 mmHg 96%
    06:00 +8°C° 2.4 mm 3 mps 755 mmHg 96%
    07:00 +8°C° 1.3 mm 3 mps 755 mmHg 96%
    08:00 +8°C° 1.3 mm 4 mps 755 mmHg 95%
    09:00 +8°C° 1.3 mm 4 mps 755 mmHg 94%
    10:00 +8°C° 0.3 mm 4 mps 755 mmHg 94%
    11:00 +8°C° 0.3 mm 4 mps 755 mmHg 94%
    12:00 +8°C° 0.3 mm 4 mps 755 mmHg 93%
    13:00 +8°C° 0.1 mm 4 mps 754 mmHg 93%
    14:00 +8°C° 0.1 mm 4 mps 754 mmHg 93%
    15:00 +7°C° 0.1 mm 4 mps 753 mmHg 92%
    16:00 +7°C° 0.3 mm 4 mps 753 mmHg 92%
    17:00 +7°C° 0.3 mm 4 mps 754 mmHg 92%
    18:00 +7°C° 0.3 mm 4 mps 754 mmHg 92%
    19:00 +7°C° 0.8 mm 4 mps 754 mmHg 91%
    20:00 +6°C° 0.8 mm 4 mps 754 mmHg 90%
    21:00 +6°C° 0.8 mm 4 mps 754 mmHg 89%
    22:00 +6°C° 0.8 mm 4 mps 754 mmHg 88%
    23:00 +7°C° 0.8 mm 3 mps 754 mmHg 87%

    Tomorrow, 16 November, Saturday

    Time Temperature Precipitation Wind Pressure Humidity
    00:00 +8°C° 0.8 mm 3 mps 753 mmHg 86%
    01:00 +7°C° 0.9 mm 4 mps 753 mmHg 87%
    02:00 +7°C° 0.9 mm 4 mps 753 mmHg 89%
    03:00 +7°C° 0.9 mm 4 mps 753 mmHg 90%
    04:00 +7°C° 0.2 mm 4 mps 753 mmHg 90%
    05:00 +7°C° 0.2 mm 4 mps 754 mmHg 90%
    06:00 +7°C° 0.2 mm 4 mps 754 mmHg 89%
    07:00 +7°C° 0 mm 4 mps 754 mmHg 88%
    08:00 +7°C° 0 mm 4 mps 755 mmHg 87%
    09:00 +7°C° 0 mm 5 mps 755 mmHg 86%
    10:00 +8°C° 0 mm 5 mps 755 mmHg 83%
    11:00 +8°C° 0 mm 4 mps 754 mmHg 80%
    12:00 +8°C° 0 mm 4 mps 754 mmHg 77%
    13:00 +10°C° 0 mm 4 mps 754 mmHg 73%
    14:00 +11°C° 0 mm 4 mps 754 mmHg 70%
    15:00 +11°C° 0 mm 4 mps 753 mmHg 67%
    16:00 +10°C° 0 mm 3 mps 754 mmHg 70%
    17:00 +9°C° 0 mm 3 mps 754 mmHg 74%
    18:00 +7°C° 0 mm 2 mps 755 mmHg 77%
    19:00 +7°C° 0 mm 2 mps 755 mmHg 76%
    20:00 +5°C° 0 mm 3 mps 755 mmHg 75%
    21:00 +5°C° 0 mm 3 mps 755 mmHg 73%
    22:00 +5°C° 0 mm 3 mps 755 mmHg 72%
    23:00 +4°C° 0 mm 3 mps 754 mmHg 71%

    Day after tomorrow, 17 November, Sunday

    Time Temperature Precipitation Wind Pressure Humidity
    00:00 +4°C° 0 mm 3 mps 754 mmHg 70%
    01:00 +3°C° 0 mm 3 mps 754 mmHg 68%
    02:00 +3°C° 0 mm 3 mps 754 mmHg 66%
    03:00 +3°C° 0 mm 3 mps 754 mmHg 64%
    04:00 +2°C° 0 mm 3 mps 754 mmHg 65%
    05:00 +2°C° 0 mm 3 mps 755 mmHg 65%
    06:00 +3°C° 0 mm 2 mps 755 mmHg 65%
    07:00 +4°C° 0 mm 2 mps 755 mmHg 62%
    08:00 +5°C° 0 mm 2 mps 755 mmHg 59%
    09:00 +7°C° 0 mm 2 mps 755 mmHg 56%
    10:00 +9°C° 0 mm 2 mps 754 mmHg 52%
    11:00 +12°C° 0 mm 2 mps 753 mmHg 49%
    12:00 +14°C° 0 mm 2 mps 753 mmHg 46%
    13:00 +15°C° 0 mm 2 mps 752 mmHg 47%
    14:00 +15°C° 0 mm 2 mps 752 mmHg 49%
    15:00 +15°C° 0 mm 1 mps 751 mmHg 51%
    16:00 +13°C° 0 mm 1 mps 751 mmHg 57%
    17:00 +12°C° 0 mm 1 mps 751 mmHg 63%
    18:00 +10°C° 0 mm 1 mps 751 mmHg 69%
    19:00 +8°C° 0 mm 0 mps 751 mmHg 70%
    20:00 +8°C° 0 mm 0 mps 751 mmHg 71%
    21:00 +7°C° 0 mm 0 mps 751 mmHg 72%
    22:00 +7°C° 0 mm 0 mps 751 mmHg 73%
    23:00 +7°C° 0 mm 0 mps 751 mmHg 75%

    18 November, Monday

    Time Temperature Precipitation Wind Pressure Humidity
    00:00 +7°C° 0 mm 0 mps 751 mmHg 76%
    01:00 +6°C° 0 mm 0 mps 751 mmHg 78%
    02:00 +6°C° 0 mm 0 mps 750 mmHg 79%
    03:00 +6°C° 0 mm 0 mps 750 mmHg 81%
    04:00 +6°C° 0 mm 0 mps 750 mmHg 83%
    05:00 +6°C° 0 mm 0 mps 750 mmHg 85%
    06:00 +5°C° 0 mm 0 mps 750 mmHg 87%
    07:00 +8°C° 0 mm 1 mps 751 mmHg 79%
    08:00 +11°C° 0 mm 1 mps 751 mmHg 72%
    09:00 +13°C° 0 mm 2 mps 751 mmHg 64%
    10:00 +14°C° 0 mm 2 mps 750 mmHg 60%
    11:00 +15°C° 0 mm 2 mps 750 mmHg 56%
    12:00 +16°C° 0 mm 2 mps 749 mmHg 52%
    13:00 +16°C° 0 mm 2 mps 749 mmHg 53%
    14:00 +16°C° 0 mm 2 mps 749 mmHg 55%
    15:00 +15°C° 0 mm 2 mps 748 mmHg 56%
    16:00 +14°C° 0 mm 2 mps 749 mmHg 61%
    17:00 +13°C° 0 mm 1 mps 749 mmHg 67%
    18:00 +11°C° 0 mm 1 mps 749 mmHg 72%
    19:00 +11°C° 0 mm 1 mps 749 mmHg 74%
    20:00 +10°C° 0 mm 1 mps 750 mmHg 76%
    21:00 +9°C° 0 mm 1 mps 750 mmHg 78%
    22:00 +9°C° 0 mm 1 mps 750 mmHg 78%
    23:00 +9°C° 0 mm 1 mps 750 mmHg 78%

    19 November, Tuesday

    Time Temperature Precipitation Wind Pressure Humidity
    00:00 +8°C° 0 mm 1 mps 750 mmHg 78%
    01:00 +8°C° 0 mm 1 mps 750 mmHg 77%
    02:00 +8°C° 0 mm 1 mps 750 mmHg 76%
    03:00 +8°C° 0 mm 1 mps 750 mmHg 76%
    04:00 +7°C° 0 mm 1 mps 750 mmHg 76%
    05:00 +7°C° 0 mm 1 mps 751 mmHg 77%
    06:00 +7°C° 0 mm 1 mps 751 mmHg 77%
    07:00 +9°C° 0 mm 1 mps 751 mmHg 70%
    08:00 +11°C° 0 mm 1 mps 751 mmHg 63%
    09:00 +13°C° 0 mm 2 mps 752 mmHg 57%
    10:00 +14°C° 0 mm 2 mps 751 mmHg 53%
    11:00 +16°C° 0 mm 2 mps 751 mmHg 49%
    12:00 +17°C° 0 mm 3 mps 751 mmHg 45%
    13:00 +17°C° 0 mm 3 mps 750 mmHg 47%
    14:00 +17°C° 0 mm 3 mps 750 mmHg 49%
    15:00 +17°C° 0 mm 3 mps 750 mmHg 51%
    16:00 +16°C° 0 mm 3 mps 751 mmHg 57%
    17:00 +15°C° 0 mm 2 mps 751 mmHg 63%
    18:00 +13°C° 0 mm 2 mps 751 mmHg 70%
    19:00 +14°C° 0 mm 2 mps 752 mmHg 71%
    20:00 +14°C° 0 mm 2 mps 752 mmHg 73%
    21:00 +14°C° 0 mm 2 mps 752 mmHg 74%
    22:00 +13°C° 0 mm 2 mps 753 mmHg 79%
    23:00 +12°C° 0 mm 2 mps 753 mmHg 83%

    20 November, Wednesday

    Time Temperature Precipitation Wind Pressure Humidity
    00:00 +10°C° 0 mm 2 mps 753 mmHg 88%
    01:00 +10°C° 0 mm 2 mps 753 mmHg 88%
    02:00 +9°C° 0 mm 2 mps 753 mmHg 88%
    03:00 +9°C° 0 mm 2 mps 753 mmHg 88%
    04:00 +8°C° 0 mm 2 mps 754 mmHg 88%
    05:00 +8°C° 0 mm 2 mps 754 mmHg 88%
    06:00 +8°C° 0 mm 2 mps 755 mmHg 87%
    07:00 +10°C° 0 mm 2 mps 755 mmHg 78%
    08:00 +12°C° 0 mm 2 mps 756 mmHg 69%
    09:00 +14°C° 0 mm 2 mps 757 mmHg 59%
    10:00 +16°C° 0 mm 2 mps 756 mmHg 54%
    11:00 +17°C° 0 mm 3 mps 756 mmHg 49%
    12:00 +18°C° 0 mm 3 mps 756 mmHg 43%
    13:00 +18°C° 0 mm 2 mps 756 mmHg 45%
    14:00 +18°C° 0 mm 2 mps 755 mmHg 46%
    15:00 +18°C° 0 mm 2 mps 755 mmHg 47%
    16:00 +17°C° 0 mm 2 mps 756 mmHg 53%
    17:00 +15°C° 0 mm 1 mps 756 mmHg 59%
    18:00 +13°C° 0 mm 1 mps 756 mmHg 64%
    19:00 +13°C° 0 mm 1 mps 757 mmHg 66%
    20:00 +13°C° 0 mm 1 mps 757 mmHg 68%
    21:00 +12°C° 0 mm 1 mps 758 mmHg 69%
    22:00 +12°C° 0 mm 1 mps 758 mmHg 70%
    23:00 +12°C° 0 mm 1 mps 758 mmHg 72%
    Show more